TimeEDT,TemperatureF,Dew PointF,Humidity,Sea Level PressureIn,VisibilityMPH,Wind Direction,Wind SpeedMPH,Gust SpeedMPH,PrecipitationIn,Events,Conditions,WindDirDegrees,DateUTC
12:54 AM,60.1,52.0,75,29.83,10.0,WNW,12.7,21.9,N/A,,Scattered Clouds,300,2013-10-18 04:54:00
1:54 AM,57.9,46.0,65,29.86,10.0,WNW,13.8,24.2,N/A,,Scattered Clouds,300,2013-10-18 05:54:00
2:54 AM,55.9,43.0,62,29.88,10.0,WNW,9.2,-,N/A,,Partly Cloudy,290,2013-10-18 06:54:00
3:54 AM,54.0,43.0,66,29.88,10.0,Calm,Calm,-,N/A,,Partly Cloudy,0,2013-10-18 07:54:00
4:54 AM,53.1,44.1,71,29.89,10.0,West,6.9,-,N/A,,Partly Cloudy,260,2013-10-18 08:54:00
5:54 AM,52.0,43.0,71,29.91,10.0,West,6.9,-,N/A,,Partly Cloudy,270,2013-10-18 09:54:00
6:54 AM,52.0,43.0,71,29.92,10.0,WSW,5.8,-,N/A,,Scattered Clouds,250,2013-10-18 10:54:00
7:54 AM,53.1,42.1,66,29.95,10.0,Variable,3.5,-,N/A,,Scattered Clouds,0,2013-10-18 11:54:00
8:54 AM,57.0,42.1,57,29.98,10.0,WSW,6.9,-,N/A,,Scattered Clouds,250,2013-10-18 12:54:00
9:54 AM,59.0,42.1,53,29.99,10.0,West,11.5,-,N/A,,Scattered Clouds,280,2013-10-18 13:54:00
10:54 AM,61.0,41.0,48,30.00,10.0,WNW,10.4,-,N/A,,Scattered Clouds,290,2013-10-18 14:54:00
11:54 AM,63.0,41.0,45,30.01,10.0,NW,8.1,17.3,N/A,,Scattered Clouds,310,2013-10-18 15:54:00
12:54 PM,63.0,39.9,43,29.99,10.0,West,11.5,19.6,N/A,,Scattered Clouds,260,2013-10-18 16:54:00
1:54 PM,64.9,39.9,40,29.97,10.0,WSW,10.4,-,N/A,,Scattered Clouds,250,2013-10-18 17:54:00
2:54 PM,64.9,39.0,39,29.96,10.0,WNW,5.8,20.7,N/A,,Scattered Clouds,290,2013-10-18 18:54:00
3:54 PM,64.9,39.0,39,29.96,10.0,West,5.8,-,N/A,,Scattered Clouds,260,2013-10-18 19:54:00
4:54 PM,64.0,39.0,40,29.96,10.0,WNW,9.2,-,N/A,,Scattered Clouds,300,2013-10-18 20:54:00
5:54 PM,61.0,41.0,48,29.97,10.0,Variable,3.5,-,N/A,,Mostly Cloudy,0,2013-10-18 21:54:00
6:54 PM,57.0,44.1,62,29.99,10.0,Calm,Calm,-,N/A,,Mostly Cloudy,0,2013-10-18 22:54:00
7:54 PM,54.0,43.0,66,29.99,10.0,Calm,Calm,-,N/A,,Mostly Cloudy,0,2013-10-18 23:54:00
8:54 PM,51.1,45.0,80,30.00,10.0,Calm,Calm,-,N/A,,Mostly Cloudy,0,2013-10-19 00:54:00
9:54 PM,50.0,45.0,83,30.01,10.0,Calm,Calm,-,N/A,,Scattered Clouds,0,2013-10-19 01:54:00
10:54 PM,48.9,45.0,86,30.02,10.0,Calm,Calm,-,N/A,,Scattered Clouds,0,2013-10-19 02:54:00
11:54 PM,48.0,45.0,89,30.01,10.0,Calm,Calm,-,N/A,,Scattered Clouds,0,2013-10-19 03:54:00